OBJECT E, 49319

Orbit data source: Space-Track

You're viewing an Uncataloged Satellite

Recently launched and/or uncataloged satellites may have evolving metadata. Metadata may include but not limited to: Owner, Maufacturer, Bus, Motor, and Mission.

OBJECT E, 49319 is a Chinese satellite in SSO that was launched on Thu, 14 Oct 2021 UTC via a CHANG ZHENG 2D launch vehicle from the Taiyaun Space Center, China (TSC). Unknown objects in Earth's orbit typically refer to objects detected orbiting the Earth but have not yet been identified or cataloged. These objects could be anything from previously untracked satellites, spent rocket stages, debris from satellite collisions, or even natural meteoroids temporarily captured by Earth's gravity.

Loading next visibility...
Identifier
49319, 2021-091E
Orbit
SSO
Country
Flag of CNCN / PRC
Related business
None
Manufacturer
Unknown
Mission
Non-operational Commercial Communications
Bus & Motor
Unknown
Mass
Unknown
Launch date (UTC)
2021-10-14 (5 years ago)
Launch vehicle
CHANG ZHENG 2D
Launch site
Taiyaun Space Center, China (TSC)
Object type
Unknown
Shape & HBR
Box + 2 Pan, 1.0 m
Radar Cross Section
0.223 m², Medium (>0.1 m² and < 1m²)

Expand to show TLE details & history
Last TLE update: 23 hours ago

TLE from 23 hours ago
0 OBJECT E
1 49319U 21091E   26172.55877753  .00027562  00000-0  28451-3 0  9999
2 49319  97.3790  33.6170 0003230 291.5085  68.5830 15.64757356262033
Epoch: 2026-06-21T13:24Z
TLE epoch observation values (Epoch: 2026-06-21T13:24:38.378Z)
Latitude
-0.00001°
Longitude
-77.30022°
Altitude
376.292 km
Speed
7.684 km/s
True Right ascension
02h 14m 28s
True Declination
0° 00' 00"
Sunlit
Object was in daylight at epoch
Visualization orbit readout
Latitude
Unknown
Longitude
Unknown
Altitude
Unknown
Speed
Unknown
Apparent Right ascension
Unknown
Apparent Declination
Unknown
Sunlit
N/A
Visualization observer readout
Local Sidereal Time
23:27:12
Azimuth
Unknown
Elevation
Unknown
Doppler factor
Unknown
Orbital elements
Apogee altitude
373.022 km
Perigee altitude
368.662 km
Semi-major axis
6,748.979 km
Eccentricity
0.00032
Inclination
97.379°
RAAN
33.617°
Arg. of periapsis
291.5085°
True anomaly
68.61746°
Mean anomaly
68.583°
Eccentric anomaly
68.60023°
Mean motion
3.91459 °/min
Orbital period
91.96 mins
BSTAR
0.00028451
Loading maneuver chart data...
Computing Atmospheric mass density...
Loading historical data...
Loading historical data...
Loading historical data...
Loading historical data...
Loading historical data...
Loading historical data...
Loading historical data...

Documentation

Showing up to 5 results
|